Weather History for Tuscaloosa, AL

Change the Weather History Date:

Friday, June 21, 2013

  Actual Average Record
Temperature  
Mean Temperature 81 °F 80 °F  
Max Temperature 90 °F 90 °F 100 °F (1964)
Min Temperature 71 °F 69 °F 59 °F (1985)
Cooling Degree Days 14    
Growing Degree Days 30 (Base 50)    
Moisture  
Dew Point 67 °F    
Average Humidity 65    
Maximum Humidity 84    
Minimum Humidity 46    
Precipitation  
Precipitation 0.00 in 0.17 in 2.78 in (1989)
Month to date precipitation 4.95 3.25  
Year to date precipitation 26.91 26.65  
Sea Level Pressure  
Sea Level Pressure 30.14 in    
Wind  
Wind Speed 5 mph (ENE)    
Max Wind Speed 13 mph    
Max Gust Speed 16 mph    
Visibility 10 miles    
Events      
T = Trace of Precipitation, MM = Missing Value Source: NWS Daily Summary

Daily Weather History Graph

Daily Weather History Graph

Search for Another Location

Airport:

Trip Planner

Search our weather history database for the weather conditions in past years. The results will help you decide how hot, cold, wet, or windy it might be!

Date:

Astronomy

Jun. 21, 2013 Rise Set
Actual Time 5:41 AM CDT 8:02 PM CDT
Civil Twilight 5:12 AM CDT 8:31 PM CDT
Nautical Twilight 4:37 AM CDT 9:07 PM CDT
Astronomical Twilight 3:58 AM CDT 9:45 PM CDT
Moon 6:16 PM CDT (6/21) 3:52 AM CDT (6/21)
Length of Visible Light 15h 18m
Length of Day
14h 21m
Waxing Gibbous, 95% of the Moon is Illuminated
Jun 21
Waxing Gibbous
Jun 23
Full
Jun 29
Last Quarter
Jul 8
New
Jul 15
First Quarter

Hourly Weather History & Observations

Time (CDT) Temp. Heat Index Dew Point Humidity Pressure Visibility Wind Dir Wind Speed Gust Speed Precip Events Conditions
12:53 AM 75.9 °F - 66.9 °F 74% 30.13 in 10.0 mi ENE 4.6 mph - N/A   Clear
1:53 AM 73.9 °F - 66.9 °F 79% 30.12 in 10.0 mi ENE 3.5 mph - N/A   Clear
2:53 AM 73.0 °F - 66.9 °F 81% 30.12 in 10.0 mi NE 3.5 mph - N/A   Clear
3:53 AM 73.0 °F - 66.0 °F 79% 30.12 in 10.0 mi Calm Calm - N/A   Clear
4:53 AM 72.0 °F - 66.0 °F 81% 30.13 in 9.0 mi NE 3.5 mph - N/A   Clear
5:53 AM 71.1 °F - 66.0 °F 84% 30.15 in 8.0 mi NE 3.5 mph - N/A   Clear
6:53 AM 73.9 °F - 66.9 °F 79% 30.16 in 8.0 mi NE 3.5 mph - N/A   Clear
7:53 AM 78.1 °F - 68.0 °F 71% 30.17 in 9.0 mi Variable 5.8 mph - N/A   Clear
8:53 AM 80.1 °F 82.7 °F 68.0 °F 67% 30.19 in 10.0 mi East 8.1 mph - N/A   Clear
9:53 AM 82.0 °F 85.5 °F 69.1 °F 65% 30.18 in 10.0 mi ESE 6.9 mph - N/A   Clear
10:53 AM 84.0 °F 87.0 °F 68.0 °F 58% 30.19 in 10.0 mi East 6.9 mph - N/A   Clear
11:53 AM 84.9 °F 88.2 °F 68.0 °F 57% 30.19 in 10.0 mi SE 6.9 mph 16.1 mph N/A   Scattered Clouds
12:53 PM 87.1 °F 91.3 °F 69.1 °F 55% 30.17 in 10.0 mi ENE 6.9 mph - N/A   Partly Cloudy
1:53 PM 88.0 °F 90.7 °F 66.9 °F 49% 30.16 in 10.0 mi ENE 4.6 mph - N/A   Partly Cloudy
2:53 PM 88.0 °F 90.7 °F 66.9 °F 49% 30.14 in 10.0 mi East 8.1 mph - N/A   Partly Cloudy
3:53 PM 87.1 °F 90.6 °F 68.0 °F 53% 30.13 in 10.0 mi ENE 4.6 mph - N/A   Partly Cloudy
4:53 PM 88.0 °F 90.7 °F 66.9 °F 49% 30.11 in 10.0 mi ENE 5.8 mph - N/A   Partly Cloudy
5:53 PM 88.0 °F 89.6 °F 64.9 °F 46% 30.09 in 10.0 mi ENE 8.1 mph - N/A   Clear
6:53 PM 87.1 °F 89.2 °F 66.0 °F 49% 30.09 in 10.0 mi ENE 4.6 mph - N/A   Partly Cloudy
7:53 PM 81.0 °F 83.3 °F 66.9 °F 62% 30.09 in 10.0 mi East 3.5 mph - N/A   Clear
8:53 PM 78.1 °F - 66.9 °F 68% 30.10 in 10.0 mi ENE 3.5 mph - N/A   Clear
9:53 PM 77.0 °F - 69.1 °F 76% 30.13 in 10.0 mi East 3.5 mph - N/A   Clear
10:53 PM 79.0 °F - 68.0 °F 69% 30.13 in 10.0 mi ENE 3.5 mph - N/A   Scattered Clouds
11:53 PM 77.0 °F - 68.0 °F 74% 30.14 in 10.0 mi Calm Calm - N/A   Clear